2024-173D

Last updated on Tue Oct 08 2024 00:02:04 GMT+0000 (Coordinated Universal Time)

1 61230U 24173D 24281.53717024 .00057564 00000+0 22736-2 0 9993 2 61230 97.4046 354.2041 0011472 226.8626 133.1653 15.25243069 2034
UTC large
Height (km)
Speed (km/s)
/
Latitude / Longitude
Inclination (degrees)
Orbital Period (minutes)
Azimuth
Elevation
Range (km)
Doppler Factor

Next 0 passes for location: London (51.5072 / 0.1276)

Sorry there are no passes over London.